Flag for Germany Weather for the Past 2 Weeks in Garmisch-Partenkirchen, Bavaria, Germany

Now
48 °F

Passing clouds.


Feels Like: 45 °F
Forecast: 29 / 36 °F
Wind: 8 mph from Southeast

Location: Innsbruck-Flughafen

Current Time: Feb 10, 2016 at 12:26:59 AM

Latest Report: Feb 9, 2016 at 11:20 PM


Visibility: N/A

Pressure: 29.24 "Hg (26.87 "Hg at 699m altitude)

Humidity: 62%

Dew point: 36 °F

Location of Garmisch-PartenkirchenLocation

Historic Weather in Garmisch-Partenkirchen — Graph

°F

Garmisch-Partenkirchen Temperature Yesterday

Maximum temperature yesterday: 54 °F (at 10:50 AM)
Minimum temperature yesterday: 36 °F (at 5:20 AM)
Average temperature yesterday: 47 °F

High & Low Weather Summary for the Past Weeks

 TemperatureHumidityPressure
High57 °F (Feb 1, 1:50 PM)100% (Jan 25, 11:20 PM)30.48 "Hg (Jan 25, 11:20 PM)
Low25 °F (Jan 27, 4:20 AM)41% (Jan 30, 2:20 PM)29.27 "Hg (Feb 9, 10:20 PM)
Average38 °F83%30.13 "Hg
* Reported Jan 25 10:50 PM — Feb 9 10:20 PM, Garmisch-Partenkirchen, Weather by CustomWeather, © 2016

Note: Actual official high and low records may vary slightly from our data, if they occured in-between our weather recording intervals... More about our weather records

Advertising

Garmisch-Partenkirchen Weather History for the Previous 24 Hours

 ConditionsComfort  
Time TempWeatherWind HumidityBarometerVisibility
10:20 PM
Tue, Feb 9
50 °FPartly cloudy.12 mph54%29.27 "HgN/A
9:50 PM50 °FPartly cloudy.10 mph58%29.30 "HgN/A
9:20 PM50 °FPassing clouds.14 mph58%29.30 "HgN/A
8:50 PM50 °FPassing clouds.16 mph58%29.30 "HgN/A
8:20 PM52 °FPassing clouds.15 mph50%29.30 "HgN/A
7:50 PM52 °FPartly cloudy.12 mph50%29.33 "HgN/A
7:20 PM52 °FPartly cloudy.12 mph50%29.33 "HgN/A
6:50 PM52 °FPartly cloudy.22 mph50%29.33 "HgN/A
6:20 PM52 °FPassing clouds.18 mph50%29.36 "HgN/A
5:50 PM54 °FPassing clouds.21 mph47%29.36 "HgN/A
5:20 PM54 °FPartly sunny.22 mph47%29.39 "HgN/A
4:50 PM54 °FBroken clouds.17 mph44%29.42 "HgN/A
4:20 PM54 °FBroken clouds.15 mph47%29.42 "HgN/A
3:50 PM54 °FBroken clouds.14 mph47%29.45 "HgN/A
3:20 PM54 °FBroken clouds.16 mph47%29.45 "HgN/A
2:50 PM54 °FBroken clouds.14 mph44%29.47 "HgN/A
2:20 PM54 °FBroken clouds.13 mph44%29.47 "HgN/A
1:50 PM54 °FBroken clouds.17 mph44%29.50 "HgN/A
1:20 PM54 °FBroken clouds.12 mph44%29.53 "HgN/A
12:50 PM54 °FPartly sunny.17 mph44%29.56 "HgN/A
12:20 PM54 °FPartly sunny.16 mph41%29.59 "HgN/A
11:20 AM54 °FBroken clouds.17 mph44%29.65 "HgN/A
10:50 AM54 °FBroken clouds.15 mph44%29.68 "HgN/A
10:20 AM45 °FBroken clouds.9 mph71%29.68 "HgN/A
9:20 AM39 °FBroken clouds.3 mph87%29.74 "HgN/A
8:50 AM37 °FBroken clouds.3 mph87%29.74 "HgN/A
8:20 AM37 °FBroken clouds.7 mph87%29.74 "HgN/A
7:50 AM36 °FBroken clouds.7 mph87%29.77 "HgN/A
6:50 AM36 °FPassing clouds.3 mph87%29.80 "HgN/A
6:20 AM37 °FPassing clouds.8 mph87%29.80 "HgN/A
5:50 AM36 °FPassing clouds.7 mph93%29.80 "HgN/A
5:20 AM36 °FPassing clouds.5 mph93%29.80 "HgN/A
4:50 AM37 °FPassing clouds.6 mph87%29.80 "HgN/A
4:20 AM37 °FChilly.6 mph81%29.80 "HgN/A
3:50 AM39 °FPassing clouds.5 mph81%29.80 "HgN/A
3:20 AM41 °FPassing clouds.3 mph76%29.80 "HgN/A
2:50 AM41 °FPassing clouds.5 mph76%29.83 "HgN/A
2:20 AM39 °FPassing clouds.5 mph87%29.83 "HgN/A
1:50 AM43 °FPartly cloudy.7 mph76%29.83 "HgN/A
1:20 AM43 °FPassing clouds.8 mph76%29.80 "Hg6 mi
12:50 AM41 °FPassing clouds.5 mph81%29.80 "HgN/A
Weather by CustomWeather, © 2016

See weather overviewHow to use our weather pages